User: anonymous   Login
Location: Trois-Rivi�res
(46.3500°N, 72.5500°W)
Time: 19:39:30
(UTC-04:00)
Language:

Cosmos 1544 - Orbit

View from above orbital plane
View from above orbital plane
View from above satellite
View from above satellite

Ground track
Ground track

The orbit data is extracted from the following two-line orbital elements,

1 14819U 84027A   14303.06605288  .00010689  00000-0  51638-3 0   632
2 14819 082.4878 269.8064 0017971 163.3832 241.8391 15.18375945669500
Epoch (UTC): 30 October 2014 01:35:06
Eccentricity: 0.0017971
inclination: 82.4878°
perigee height: 498 km
apogee height: 523 km
right ascension of ascending node: 269.8064°
argument of perigee: 163.3832°
revolutions per day: 15.18375945
mean anomaly at epoch: 241.8391°
orbit number at epoch: 66950

The dashed part of the orbit path shows where the satellite is in the earth's shadow,  

DLR